Tracking 32139 objects as of 16-Nov-2025
HD Live streaming from Space Station
objects crossing your sky now

STARLINK-30450

Track STARLINK-30450 now!
10-day predictions
STARLINK-30450 is classified as:


NORAD ID: 57913
Int'l Code: 2023-147A
Perigee: 565.7 km
Apogee: 566.7 km
Inclination: 43.0 °
Period: 95.8 minutes
Semi major axis: 6937 km
RCS: Unknown
Launch date: September 24, 2023
Source: United States (US)
Launch site: AIR FORCE EASTERN TEST RANGE (AFETR)
Your satellite tracking list
Your tracking list is empty




NASA's NSSDC Master Catalog

Two Line Element Set (TLE):
1 57913U 23147A   25319.74911170  .00001734  00000-0  14334-3 0  9995
2 57913  43.0013 225.5821 0000655 268.8920  91.1847 15.02542661119445
Source of the keplerian elements: AFSPC